Regional Weather Roundup
Issued by NWS Newport/Morehead, NC

Current Version | Previous Version | Text Only | Print | Product List | Glossary On
Versions: 1 2 3 4 5 6 7 8 9 10 11 12 13 14 15 16 17 18 19 20 21 22 23 24 25 26 27 28 29 30 31 32 33 34 35 36 37 38 39 40 41 42 43 44 45 46 47 48 49 50
201
ASUS42 KMHX 222013
RWRMHX
WEATHER ROUNDUP FOR EASTERN NORTH CAROLINA
NATIONAL WEATHER SERVICE NEWPORT/MOREHEAD CITY NC
400 PM EDT SUN APR 22 2018

NOTE: "FAIR" INDICATES FEW OR NO CLOUDS BELOW 12,000 FEET
WITH NO SIGNIFICANT WEATHER AND/OR OBSTRUCTIONS TO VISIBILITY

NCZ015>017-031-032-045>047-102-103-222100-
NORTH COAST

CITY           SKY/WX    TMP DP  RH WIND       PRES   REMARKS
EDENTON        FAIR      67  39  36 E13       30.36F
ELIZABETH CITY FAIR      63  37  38 SE12      30.38F
KITTY HAWK     FAIR      55  37  51 E5        30.38F
MANTEO         FAIR      56  35  45 E9        30.39F

$$

NCZ045>047-081-094-103-104-222100-
CENTRAL COAST

CITY           SKY/WX    TMP DP  RH WIND       PRES   REMARKS
FRISCO         FAIR      62  43  49 NE9G17    30.37F

$$

NCZ095-097-098-100-101-222100-
SOUTHERN COAST

CITY           SKY/WX    TMP DP  RH WIND       PRES   REMARKS
BEAUFORT       FAIR      67  32  27 E10       30.33F
CEDAR ISLAND   NOT AVBL
JACKSONVILLE   FAIR      67  36  31 SE14      30.32F
PINEY ISLAND   NOT AVBL
WILMINGTON     FAIR      66  41  40 E13       30.31F


$$

NCZ011>013-027>030-043-044-078>080-089-090>093-098-222100-
COASTAL PLAIN

CITY           SKY/WX    TMP DP  RH WIND       PRES   REMARKS
AHOSKIE        FAIR      68  40  36 SE8       30.33F
CLINTON        FAIR      73  45  37 CALM      30.29F
ELIZABETHTOWN  CLOUDY    70  48  45 MISG      30.28F
GOLDSBORO      LGT RAIN  72  39  30 E12       30.28F
GREENVILLE     FAIR      70  39  32 SE7       30.33F
HAVELOCK       NOT AVBL
KENANSVILLE    FAIR      70  41  35 SE3       30.29F
KINSTON        FAIR      70  37  30 E3        30.32F
NEW BERN       FAIR      68  34  28 VRB7      30.34F
RICHLANDS      FAIR      70  41  34 SE12      30.31F
ROCKY MOUNT    FAIR      69  38  32 CALM      30.31F
WASHINGTON     FAIR      68  36  30 E7        30.34F
WHITEVILLE     CLOUDY    68  50  52 E7        30.28F

$$

AMZ130-135-150-152-154-156-158-170-250-252-270-ANZ085-086-088-633-658-670-222100-
MARINE OBSERVATIONS

STATION/POSITION TIME  TEMP    WIND        PRES    WAVE   SWELL
                       AIR SEA DIR/SP/G            HT/PER HT/PER
                 (UTC) (F)     (DEG/KT/KT) (MB)    (FT/S) (FT/S)
CHESAPEAKE LIGHT NOT AVBL
64 E VA BEACH    1950   51 51   50/  6/  6 1030.1    1/ 9   2/ 9
DUCK             1942   54 54   80/  9/ 11 1028.8
2 E DUCK         2000      54                N/A     2/13
OREGON INLET     1942   53 58   20/ 10/ 12 1028.8
13E OREGON INLT  1948      51                N/A     2/ 8   2/ 8
HATTERAS CG      1942   58 61   50/ 11/ 13 1028.0
DIAMOND BUOY     2000   61 74   30/ 14/ 17 1028.1
CAPE LOOKOUT     2000           60/ 15/ 16 1027.6
BEAUFORT LAB     1942   64 63   80/ 10/ 15 1027.5
30 SE NEW RVR IN 1908   63 65   80/ 14/ 17 1027.6
30 SE NEW RVR IN 2000      65                N/A     4/ 4
27 SE WRIGHTSVLE 1908   64 65   90/ 16/ 21 1026.9
5 SE WRIGHTSVLE  1908   62 61   90/ 12/ 16 1027.1
225 S CAPE HAT   2000   67 72   80/ 10/ 14 1025.6
41 SE CHARLESTON 2000   69 67  100/ 12/ 16 1024.1

$$




USA.gov is the U.S. government's official web portal to all federal, state and local government web resources and services.